Saipan, MP

12:41 PM ChST on August 17, 2017 (GMT +1000)
Saipan International

Weather History for PGSN - June, 2013

Change the Weather History Date:

Tuesday, June 25, 2013

  Actual Average Record
Temperature  
Mean Temperature 80 °F -  
Max Temperature 84 °F 85 °F 91 °F (2014)
Min Temperature 77 °F 76 °F 77 °F (2003)
Cooling Degree Days 16    
Growing Degree Days 30 (Base 50)    
Moisture  
Dew Point 75 °F    
Average Humidity 83    
Maximum Humidity 96    
Minimum Humidity 72    
Precipitation  
Precipitation 0.09 in - - ()
Sea Level Pressure  
Sea Level Pressure 29.98 in    
Wind  
Wind Speed 12 mph (ENE)    
Max Wind Speed 17 mph    
Max Gust Speed 24 mph    
Visibility 9 miles    
Events Rain    
Averages and records for this station are not official NWS values.
T = Trace of Precipitation, MM = Missing Value Source: NWS Daily Summary

Daily Weather History Graph

Daily Weather History Graph

Search for Another Location

Airport or City:

Trip Planner

Search our weather history database for the weather conditions in past years. The results will help you decide how hot, cold, wet, or windy it might be!

Date:

Astronomy

Jun. 25, 2013 Rise Set
Actual Time 5:49 AM ChST 6:50 PM ChST
Civil Twilight 5:25 AM ChST 7:14 PM ChST
Nautical Twilight 4:57 AM ChST 7:42 PM ChST
Astronomical Twilight 4:28 AM ChST 8:10 PM ChST
Moon 8:31 PM ChST (6/25) 7:23 AM ChST (6/25)
Length of Visible Light 13h 48m
Length of Day
13h 01m
Waning Gibbous, 96% of the Moon is Illuminated
Jun 25
Waning Gibbous
Jun 30
Last Quarter
Jul 8
New
Jul 16
First Quarter
Jul 23
Full

Hourly Weather History & Observations

Time (ChST) Temp. Heat Index Dew Point Humidity Pressure Visibility Wind Dir Wind Speed Gust Speed Precip Events Conditions
12:54 AM 79.0 °F - 73.9 °F 84% 30.00 in 10.0 mi East 10.4 mph - N/A   Scattered Clouds
1:54 AM 79.0 °F - 75.0 °F 88% 29.99 in 10.0 mi ENE 9.2 mph - N/A   Scattered Clouds
2:54 AM 79.0 °F - 75.0 °F 88% 29.98 in 10.0 mi East 9.2 mph - N/A   Scattered Clouds
3:54 AM 79.0 °F - 75.0 °F 88% 29.98 in 10.0 mi East 9.2 mph - N/A   Scattered Clouds
4:54 AM 78.1 °F - 73.9 °F 87% 29.98 in 10.0 mi East 10.4 mph - N/A   Clear
5:54 AM 79.0 °F - 75.0 °F 88% 29.99 in 10.0 mi East 9.2 mph - N/A   Scattered Clouds
6:54 AM 81.0 °F 86.7 °F 75.0 °F 82% 30.00 in 10.0 mi East 13.8 mph - 0.00 in   Clear
7:54 AM 82.9 °F 90.2 °F 75.0 °F 77% 30.00 in 10.0 mi ENE 16.1 mph - N/A   Partly Cloudy
8:54 AM 84.0 °F 91.9 °F 75.0 °F 74% 30.00 in 10.0 mi ENE 16.1 mph 20.7 mph N/A   Scattered Clouds
9:54 AM 84.0 °F 91.9 °F 75.0 °F 74% 30.00 in 10.0 mi East 17.3 mph - N/A   Clear
10:54 AM 84.9 °F 93.3 °F 75.0 °F 72% 30.00 in 10.0 mi East 17.3 mph - N/A   Clear
11:42 AM 80.6 °F 86.2 °F 75.2 °F 84% 29.94 in 2.5 mi East 17.3 mph 24.2 mph 0.00 in Rain Light Rain
11:45 AM 78.8 °F - 75.2 °F 89% 29.94 in 1.8 mi East 11.5 mph 24.2 mph 0.06 in Rain Heavy Rain
11:52 AM 80.6 °F 88.1 °F 78.8 °F 94% 29.93 in 3.0 mi East 10.4 mph - 0.09 in Rain Light Rain
11:54 AM 81.0 °F 88.6 °F 78.1 °F 91% 30.00 in 6.0 mi East 9.2 mph - 0.09 in Rain Light Rain
12:54 PM 84.9 °F 95.3 °F 77.0 °F 77% 29.99 in 10.0 mi East 17.3 mph 21.9 mph 0.00 in   Scattered Clouds
1:54 PM 84.9 °F 93.3 °F 75.0 °F 72% 29.98 in 10.0 mi East 16.1 mph - 0.00 in   Clear
2:54 PM 84.0 °F 91.9 °F 75.0 °F 74% 29.96 in 10.0 mi East 12.7 mph - 0.00 in   Scattered Clouds
3:54 PM 84.0 °F 92.6 °F 75.9 °F 76% 29.95 in 10.0 mi East 13.8 mph - N/A   Scattered Clouds
4:54 PM 84.0 °F 91.9 °F 75.0 °F 74% 29.95 in 10.0 mi East 12.7 mph - N/A   Scattered Clouds
5:54 PM 82.9 °F 90.2 °F 75.0 °F 77% 29.96 in 10.0 mi ENE 11.5 mph - N/A   Scattered Clouds
6:54 PM 80.1 °F 84.5 °F 73.9 °F 81% 29.98 in 10.0 mi NE 11.5 mph 19.6 mph N/A   Scattered Clouds
7:54 PM 77.0 °F - 75.9 °F 96% 29.99 in 10.0 mi ENE 6.9 mph - 0.00 in   Partly Cloudy
8:54 PM 78.1 °F - 75.9 °F 93% 29.99 in 10.0 mi ENE 8.1 mph - N/A   Partly Cloudy
9:54 PM 79.0 °F - 75.0 °F 88% 30.00 in 10.0 mi ENE 13.8 mph - N/A   Scattered Clouds
10:54 PM 79.0 °F - 75.0 °F 88% 30.00 in 10.0 mi ENE 9.2 mph - 0.00 in   Scattered Clouds
11:54 PM 79.0 °F - 75.0 °F 88% 29.99 in 10.0 mi ENE 12.7 mph - 0.00 in   Scattered Clouds